Location: Street
(51.1247°N, 2.7429°W)
Time: 10:35:34
(UTC+00:00)

Tiros 1 - Pass Details

Date: 27 November 2020
Orbit: 630 x 663 km, 48.4° (Epoch: 21 January)

Event Time Altitude Azimuth Distance (km) Brightness Sun altitude
Rises 17:40:38 0° 248° (WSW) 2,988 12.5 -13.7°
Reaches altitude 10° 17:43:01 10° 244° (WSW) 2,075 11.1 -14.0°
Maximum altitude 17:47:41 55° 167° (SSE) 794 7.6 -14.7°
Enters shadow 17:50:30 23° 98° (E) 1,402 8.3 -15.2°
Drops below altitude 10° 17:52:20 10° 90° (E) 2,062 - -15.4°
Sets 17:54:42 0° 86° (E) 2,969 - -15.8°
